Regional Weather Roundup
Issued by NWS Cleveland, OH

Home | Current Version | Previous Version | Text Only | Print | Product List | Glossary On
Versions: 1 2 3 4 5 6 7 8 9 10 11 12 13 14 15 16 17 18 19 20 21 22 23 24 25 26 27 28 29 30 31 32 33 34 35 36 37 38 39 40 41 42 43 44 45 46 47 48 49 50
000
ASUS41 KCLE 190810
RWRCLE
OHIO REGIONAL WEATHER ROUNDUP
NATIONAL WEATHER SERVICE WILMINGTON, OH
300 AM EST FRI DEC 19 2014

NOTE: "FAIR" INDICATES FEW OR NO CLOUDS BELOW 12,000 FEET WITH NO
SIGNIFICANT WEATHER AND/OR OBSTRUCTIONS TO VISIBILITY.

OHZ001>008-015>018-024>027-034-035-043-044-190900-
   NORTHWEST OHIO

CITY           SKY/WX    TMP DP  RH WIND       PRES   REMARKS
DEFIANCE       CLOUDY    29  23  78 CALM      30.23R
FINDLAY        CLOUDY    29  24  82 W8        30.20S WCI  21
TOLEDO EXPRESS CLOUDY    29  24  82 W7        30.21R WCI  22
TOLEDO METCALF CLOUDY    30  25  81 W8        30.21S WCI  22
LIMA           CLOUDY    30  23  75 W6        30.21R HAZE    WCI  24
$$

OHZ009>014-019>023-028>033-038-089-190900-
   NORTHEAST OHIO

CITY           SKY/WX    TMP DP  RH WIND       PRES   REMARKS
CLE-HOPKINS    FLURRIES  30  27  88 W14       30.19R WCI  19
CLE-LAKEFRONT  LGT SNOW  32  29  88 N14       30.17R FOG     WCI  22
CUY CO. ARPT   NOT AVBL
LORAIN-ELYRIA  CLOUDY    29  27  92 W9        30.19R WCI  20
ASHTABULA      CLOUDY    30  25  81 NW8       30.15R WCI  22
AKRON-CANTON   FRZ DRZL  29  25  85 W9        30.15R FOG     WCI  20
WOOSTER        CLOUDY    28  25  88 W9        30.17S WCI  19
MANSFIELD      CLOUDY    27  25  92 W7        30.17R FOG     WCI  19
YOUNGSTOWN     FRZ DRZL  29  27  92 W8        30.13R FOG     WCI  21
$$

OHZ042-051>053-060>062-070>072-077>081-190900-
  SOUTHWEST OHIO

CITY           SKY/WX    TMP DP  RH WIND       PRES   REMARKS
CINC-COVINGTON CLEAR     26  19  74 NW3       30.23R
CINC-LUNKEN    CLEAR     23  21  92 CALM      30.27S
HAMILTON       CLOUDY    25  23  92 CALM      30.26R
DAYTON         CLOUDY    28  22  78 NW6       30.23R WCI  22
WRIGHT-PAT AFB CLOUDY    28  21  75 NW5       30.23S WCI  22
DAYTON GENERAL CLOUDY    27  21  78 NW5       30.22S WCI  22
WILMINGTON     CLOUDY    27  20  75 NW9       30.21S WCI  18
$$

OHZ036-037-039>041-045>050-054>059-063>069-073>076-082>088-190900-
  CENTRAL AND SOUTHEAST OHIO

CITY           SKY/WX    TMP DP  RH WIND       PRES   REMARKS
COLUMBUS       CLOUDY    28  21  75 W6        30.22R WCI  22
OSU AIRPORT    CLOUDY    28  22  78 W5        30.21R WCI  23
BOLTON FIELD   CLOUDY    28  22  80 W3        30.22S
RICKENBACK AFB CLOUDY    28  23  79 W3        30.22S
NEWARK         CLOUDY    29  22  75 NW5       30.21R WCI  24
MARION         CLOUDY    28  23  81 W5        30.20S HAZE    WCI  23
LANCASTER      CLOUDY    29  23  78 W3        30.22R
ZANESVILLE     CLOUDY    28  22  78 CALM      30.20S
NEW PHILLY     CLOUDY    29  25  85 CALM      30.19R
$$



USA.gov is the U.S. government's official web portal to all federal, state and local government web resources and services.